Time,TemperatureF,DewpointF,PressureIn,WindDirection,WindDirectionDegrees,WindSpeedMPH,WindSpeedGustMPH,Humidity,HourlyPrecipIn,Conditions,Clouds,dailyrainin,SolarRadiationWatts/m^2,SoftwareType,DateUTC
2013-01-18 00:00:00,29.8,19.1,30.01,NE,40,3.0,5.0,64,0.00,,,0.00,0,HR-IXPWINDi_r2_v1.2.,2013-01-18 05:00:00,
2013-01-18 00:05:00,29.5,18.1,30.01,NNW,347,0.0,5.0,62,0.00,,,0.00,0,HR-IXPWINDi_r2_v1.2.,2013-01-18 05:05:00,
2013-01-18 00:10:00,29.3,17.2,30.00,North,353,3.0,10.0,60,0.00,,,0.00,0,HR-IXPWINDi_r2_v1.2.,2013-01-18 05:10:00,
2013-01-18 00:15:00,29.1,17.3,30.00,NNE,17,1.0,10.0,61,0.00,,,0.00,0,HR-IXPWINDi_r2_v1.2.,2013-01-18 05:15:00,
2013-01-18 00:21:00,29.0,17.3,30.00,NNE,23,0.0,7.0,61,0.00,,,0.00,0,HR-IXPWINDi_r2_v1.2.,2013-01-18 05:21:00,
2013-01-18 00:26:00,29.0,17.3,30.00,NNE,30,0.0,7.0,61,0.00,,,0.00,0,HR-IXPWINDi_r2_v1.2.,2013-01-18 05:26:00,
2013-01-18 00:31:00,28.8,17.1,30.00,North,3,0.0,3.0,61,0.00,,,0.00,0,HR-IXPWINDi_r2_v1.2.,2013-01-18 05:31:00,
2013-01-18 00:36:00,28.8,17.1,30.01,NNE,14,1.0,2.0,61,0.00,,,0.00,0,HR-IXPWINDi_r2_v1.2.,2013-01-18 05:36:00,
2013-01-18 00:41:00,28.7,16.6,30.01,NE,35,2.0,5.0,60,0.00,,,0.00,0,HR-IXPWINDi_r2_v1.2.,2013-01-18 05:41:00,
2013-01-18 00:47:00,28.5,16.4,30.01,North,354,1.0,6.0,60,0.00,,,0.00,0,HR-IXPWINDi_r2_v1.2.,2013-01-18 05:47:00,
2013-01-18 00:52:00,28.4,15.9,29.99,NE,44,2.0,6.0,59,0.00,,,0.00,0,HR-IXPWINDi_r2_v1.2.,2013-01-18 05:52:00,
2013-01-18 00:57:00,28.4,15.9,29.99,North,1,0.0,7.0,59,0.00,,,0.00,0,HR-IXPWINDi_r2_v1.2.,2013-01-18 05:57:00,
2013-01-18 01:04:00,28.4,15.5,29.99,North,1,0.0,7.0,58,0.00,,,0.00,0,HR-IXPWINDi_r2_v1.2.,2013-01-18 06:04:00,
2013-01-18 01:09:00,28.2,14.9,30.03,NNW,328,1.0,3.0,57,0.00,,,0.00,0,HR-IXPWINDi_r2_v1.2.,2013-01-18 06:09:00,
2013-01-18 01:14:00,28.1,14.5,30.03,North,7,0.0,5.0,56,0.00,,,0.00,0,HR-IXPWINDi_r2_v1.2.,2013-01-18 06:14:00,
2013-01-18 01:20:00,28.1,14.0,30.03,North,0,0.0,6.0,55,0.00,,,0.00,0,HR-IXPWINDi_r2_v1.2.,2013-01-18 06:20:00,
2013-01-18 01:26:00,27.9,13.4,30.04,North,8,2.0,6.0,54,0.00,,,0.00,0,HR-IXPWINDi_r2_v1.2.,2013-01-18 06:26:00,
2013-01-18 01:32:00,27.8,13.3,30.04,NE,52,3.0,5.0,54,0.00,,,0.00,0,HR-IXPWINDi_r2_v1.2.,2013-01-18 06:32:00,
2013-01-18 01:37:00,27.6,12.3,30.04,North,8,0.0,8.0,52,0.00,,,0.00,0,HR-IXPWINDi_r2_v1.2.,2013-01-18 06:37:00,
2013-01-18 01:43:00,27.5,12.2,30.04,NE,47,1.0,8.0,52,0.00,,,0.00,0,HR-IXPWINDi_r2_v1.2.,2013-01-18 06:43:00,
2013-01-18 01:48:00,27.5,12.6,30.04,North,8,1.0,6.0,53,0.00,,,0.00,0,HR-IXPWINDi_r2_v1.2.,2013-01-18 06:48:00,
2013-01-18 01:53:00,27.3,12.9,30.04,NNE,20,2.0,6.0,54,0.00,,,0.00,0,HR-IXPWINDi_r2_v1.2.,2013-01-18 06:53:00,
2013-01-18 01:58:00,27.3,13.3,30.04,NNW,329,1.0,7.0,55,0.00,,,0.00,0,HR-IXPWINDi_r2_v1.2.,2013-01-18 06:58:00,
2013-01-18 02:03:00,27.2,13.2,30.04,NW,316,1.0,7.0,55,0.00,,,0.00,0,HR-IXPWINDi_r2_v1.2.,2013-01-18 07:03:00,
2013-01-18 02:09:00,27.0,13.0,30.06,NE,44,2.0,7.0,55,0.00,,,0.00,0,HR-IXPWINDi_r2_v1.2.,2013-01-18 07:09:00,
2013-01-18 02:14:00,26.9,13.3,30.06,North,357,2.0,6.0,56,0.00,,,0.00,0,HR-IXPWINDi_r2_v1.2.,2013-01-18 07:14:00,
2013-01-18 02:19:00,27.0,13.4,30.06,North,353,3.0,3.0,56,0.00,,,0.00,0,HR-IXPWINDi_r2_v1.2.,2013-01-18 07:19:00,
2013-01-18 02:25:00,27.0,13.4,30.07,North,0,0.0,3.0,56,0.00,,,0.00,0,HR-IXPWINDi_r2_v1.2.,2013-01-18 07:25:00,
2013-01-18 02:31:00,27.0,13.4,30.07,North,0,2.0,3.0,56,0.00,,,0.00,0,HR-IXPWINDi_r2_v1.2.,2013-01-18 07:31:00,
2013-01-18 02:37:00,26.9,12.1,30.05,NNE,24,2.0,6.0,53,0.00,,,0.00,0,HR-IXPWINDi_r2_v1.2.,2013-01-18 07:37:00,
2013-01-18 02:42:00,26.7,11.9,30.05,NNW,347,0.0,6.0,53,0.00,,,0.00,0,HR-IXPWINDi_r2_v1.2.,2013-01-18 07:42:00,
2013-01-18 02:47:00,26.7,12.3,30.05,NNW,347,0.0,4.0,54,0.00,,,0.00,0,HR-IXPWINDi_r2_v1.2.,2013-01-18 07:47:00,
2013-01-18 02:52:00,26.7,12.3,30.05,North,0,1.0,2.0,54,0.00,,,0.00,0,HR-IXPWINDi_r2_v1.2.,2013-01-18 07:52:00,
2013-01-18 02:57:00,26.7,12.3,30.05,NNE,16,0.0,3.0,54,0.00,,,0.00,0,HR-IXPWINDi_r2_v1.2.,2013-01-18 07:57:00,
2013-01-18 03:02:00,26.7,12.7,30.05,NNE,16,0.0,3.0,55,0.00,,,0.00,0,HR-IXPWINDi_r2_v1.2.,2013-01-18 08:02:00,
2013-01-18 03:07:00,26.7,11.9,30.06,NNE,16,0.0,2.0,53,0.00,,,0.00,0,HR-IXPWINDi_r2_v1.2.,2013-01-18 08:07:00,
2013-01-18 03:12:00,26.7,12.7,30.06,NNE,16,0.0,2.0,55,0.00,,,0.00,0,HR-IXPWINDi_r2_v1.2.,2013-01-18 08:12:00,
2013-01-18 03:18:00,26.7,12.3,30.06,NNE,16,0.0,2.0,54,0.00,,,0.00,0,HR-IXPWINDi_r2_v1.2.,2013-01-18 08:18:00,
2013-01-18 03:23:00,26.7,12.3,30.07,NNE,16,0.0,2.0,54,0.00,,,0.00,0,HR-IXPWINDi_r2_v1.2.,2013-01-18 08:23:00,
2013-01-18 03:29:00,26.7,12.3,30.07,NNE,16,0.0,2.0,54,0.00,,,0.00,0,HR-IXPWINDi_r2_v1.2.,2013-01-18 08:29:00,
2013-01-18 03:35:00,26.7,11.9,30.07,North,356,0.0,3.0,53,0.00,,,0.00,0,HR-IXPWINDi_r2_v1.2.,2013-01-18 08:35:00,
2013-01-18 03:41:00,26.4,12.0,30.06,NE,48,1.0,3.0,54,0.00,,,0.00,0,HR-IXPWINDi_r2_v1.2.,2013-01-18 08:41:00,
2013-01-18 03:46:00,26.3,12.0,30.06,North,349,2.0,3.0,54,0.00,,,0.00,0,HR-IXPWINDi_r2_v1.2.,2013-01-18 08:46:00,
2013-01-18 03:52:00,26.1,12.2,30.06,North,0,2.0,3.0,55,0.00,,,0.00,0,HR-IXPWINDi_r2_v1.2.,2013-01-18 08:52:00,
2013-01-18 03:57:00,26.1,12.2,30.06,North,1,0.0,3.0,55,0.00,,,0.00,0,HR-IXPWINDi_r2_v1.2.,2013-01-18 08:57:00,
2013-01-18 04:02:00,26.0,12.5,30.06,North,1,0.0,2.0,56,0.00,,,0.00,0,HR-IXPWINDi_r2_v1.2.,2013-01-18 09:02:00,
2013-01-18 04:07:00,25.8,12.3,30.07,NW,316,0.0,3.0,56,0.00,,,0.00,0,HR-IXPWINDi_r2_v1.2.,2013-01-18 09:07:00,
2013-01-18 04:12:00,25.7,12.2,30.07,NNW,342,0.0,3.0,56,0.00,,,0.00,0,HR-IXPWINDi_r2_v1.2.,2013-01-18 09:12:00,
2013-01-18 04:17:00,25.6,12.1,30.07,NNE,17,1.0,5.0,56,0.00,,,0.00,0,HR-IXPWINDi_r2_v1.2.,2013-01-18 09:17:00,
2013-01-18 04:23:00,25.3,12.2,30.08,NNE,31,1.0,6.0,57,0.00,,,0.00,0,HR-IXPWINDi_r2_v1.2.,2013-01-18 09:23:00,
2013-01-18 04:28:00,25.1,12.4,30.08,NNE,27,1.0,6.0,58,0.00,,,0.00,0,HR-IXPWINDi_r2_v1.2.,2013-01-18 09:28:00,
2013-01-18 04:33:00,25.1,12.4,30.08,NNE,27,0.0,3.0,58,0.00,,,0.00,0,HR-IXPWINDi_r2_v1.2.,2013-01-18 09:33:00,
2013-01-18 04:38:00,25.1,13.2,30.10,NNE,27,1.0,3.0,60,0.00,,,0.00,0,HR-IXPWINDi_r2_v1.2.,2013-01-18 09:38:00,
2013-01-18 04:44:00,25.0,12.7,30.10,North,0,2.0,5.0,59,0.00,,,0.00,0,HR-IXPWINDi_r2_v1.2.,2013-01-18 09:44:00,
2013-01-18 04:49:00,24.8,11.8,30.10,North,0,0.0,5.0,57,0.00,,,0.00,0,HR-IXPWINDi_r2_v1.2.,2013-01-18 09:49:00,
2013-01-18 04:54:00,24.8,11.4,30.11,North,0,0.0,10.0,56,0.00,,,0.00,0,HR-IXPWINDi_r2_v1.2.,2013-01-18 09:54:00,
2013-01-18 05:01:00,24.5,10.3,30.11,North,6,0.0,7.0,54,0.00,,,0.00,0,HR-IXPWINDi_r2_v1.2.,2013-01-18 10:01:00,
2013-01-18 05:06:00,24.2,10.0,30.13,NNE,25,0.0,7.0,54,0.00,,,0.00,0,HR-IXPWINDi_r2_v1.2.,2013-01-18 10:06:00,
2013-01-18 05:11:00,24.2,10.4,30.13,North,8,0.0,7.0,55,0.00,,,0.00,0,HR-IXPWINDi_r2_v1.2.,2013-01-18 10:11:00,
2013-01-18 05:17:00,24.1,10.3,30.13,NNE,31,1.0,6.0,55,0.00,,,0.00,0,HR-IXPWINDi_r2_v1.2.,2013-01-18 10:17:00,
2013-01-18 05:22:00,24.1,10.3,30.14,NNE,32,4.0,6.0,55,0.00,,,0.00,0,HR-IXPWINDi_r2_v1.2.,2013-01-18 10:22:00,
2013-01-18 05:27:00,23.9,10.5,30.14,NNE,23,0.0,6.0,56,0.00,,,0.00,0,HR-IXPWINDi_r2_v1.2.,2013-01-18 10:27:00,
2013-01-18 05:32:00,23.9,10.1,30.14,NE,37,2.0,6.0,55,0.00,,,0.00,0,HR-IXPWINDi_r2_v1.2.,2013-01-18 10:32:00,
2013-01-18 05:37:00,23.8,10.0,30.15,NE,34,0.0,3.0,55,0.00,,,0.00,0,HR-IXPWINDi_r2_v1.2.,2013-01-18 10:37:00,
2013-01-18 05:42:00,23.8,10.0,30.15,North,0,0.0,3.0,55,0.00,,,0.00,0,HR-IXPWINDi_r2_v1.2.,2013-01-18 10:42:00,
2013-01-18 05:47:00,23.8,10.4,30.15,NNW,347,6.0,6.0,56,0.00,,,0.00,0,HR-IXPWINDi_r2_v1.2.,2013-01-18 10:47:00,
2013-01-18 05:53:00,23.5,9.8,30.16,North,0,6.0,11.0,55,0.00,,,0.00,0,HR-IXPWINDi_r2_v1.2.,2013-01-18 10:53:00,
2013-01-18 05:58:00,23.2,10.3,30.16,NNE,27,2.0,11.0,57,0.00,,,0.00,0,HR-IXPWINDi_r2_v1.2.,2013-01-18 10:58:00,
2013-01-18 06:03:00,23.0,10.1,30.16,NNE,13,2.0,11.0,57,0.00,,,0.00,0,HR-IXPWINDi_r2_v1.2.,2013-01-18 11:03:00,
2013-01-18 06:08:00,22.7,9.8,30.18,North,354,3.0,6.0,57,0.00,,,0.00,0,HR-IXPWINDi_r2_v1.2.,2013-01-18 11:08:00,
2013-01-18 06:13:00,22.4,9.5,30.18,North,0,4.0,6.0,57,0.00,,,0.00,0,HR-IXPWINDi_r2_v1.2.,2013-01-18 11:13:00,
2013-01-18 06:18:00,22.2,9.7,30.18,NNE,23,0.0,6.0,58,0.00,,,0.00,0,HR-IXPWINDi_r2_v1.2.,2013-01-18 11:18:00,
2013-01-18 06:23:00,22.1,10.0,30.20,NNE,24,0.0,6.0,59,0.00,,,0.00,0,HR-IXPWINDi_r2_v1.2.,2013-01-18 11:23:00,
2013-01-18 06:29:00,21.9,9.4,30.20,North,8,0.0,6.0,58,0.00,,,0.00,0,HR-IXPWINDi_r2_v1.2.,2013-01-18 11:29:00,
2013-01-18 06:34:00,21.8,9.7,30.20,North,354,6.0,6.0,59,0.00,,,0.00,0,HR-IXPWINDi_r2_v1.2.,2013-01-18 11:34:00,
2013-01-18 06:39:00,21.6,9.5,30.21,North,0,2.0,6.0,59,0.00,,,0.00,0,HR-IXPWINDi_r2_v1.2.,2013-01-18 11:39:00,
2013-01-18 06:44:00,21.4,9.7,30.21,ENE,62,6.0,6.0,60,0.00,,,0.00,0,HR-IXPWINDi_r2_v1.2.,2013-01-18 11:44:00,
2013-01-18 06:49:00,21.3,9.3,30.21,NE,47,1.0,6.0,59,0.00,,,0.00,0,HR-IXPWINDi_r2_v1.2.,2013-01-18 11:49:00,
2013-01-18 06:54:00,21.3,9.3,30.22,NNE,17,0.0,6.0,59,0.00,,,0.00,0,HR-IXPWINDi_r2_v1.2.,2013-01-18 11:54:00,
2013-01-18 06:59:00,21.1,9.4,30.22,NNE,17,1.0,4.0,60,0.00,,,0.00,0,HR-IXPWINDi_r2_v1.2.,2013-01-18 11:59:00,
2013-01-18 07:04:00,21.3,9.3,30.22,NNE,20,0.0,3.0,59,0.00,,,0.00,0,HR-IXPWINDi_r2_v1.2.,2013-01-18 12:04:00,
2013-01-18 07:10:00,21.3,9.3,30.24,NNE,13,1.0,4.0,59,0.00,,,0.00,0,HR-IXPWINDi_r2_v1.2.,2013-01-18 12:10:00,
2013-01-18 07:15:00,21.4,9.7,30.24,NNE,30,2.0,4.0,60,0.00,,,0.00,0,HR-IXPWINDi_r2_v1.2.,2013-01-18 12:15:00,
2013-01-18 07:20:00,21.4,8.2,30.24,North,0,3.0,8.0,56,0.00,,,0.00,0,HR-IXPWINDi_r2_v1.2.,2013-01-18 12:20:00,
2013-01-18 07:26:00,21.4,7.8,30.25,North,10,1.0,8.0,55,0.00,,,0.00,0,HR-IXPWINDi_r2_v1.2.,2013-01-18 12:26:00,
2013-01-18 07:32:00,21.4,7.4,30.25,NE,54,3.0,7.0,54,0.00,,,0.00,0,HR-IXPWINDi_r2_v1.2.,2013-01-18 12:32:00,
2013-01-18 07:37:00,21.4,7.8,30.27,North,359,1.0,7.0,55,0.00,,,0.00,5,HR-IXPWINDi_r2_v1.2.,2013-01-18 12:37:00,
2013-01-18 07:42:00,21.3,7.7,30.27,North,0,2.0,6.0,55,0.00,,,0.00,7,HR-IXPWINDi_r2_v1.2.,2013-01-18 12:42:00,
2013-01-18 07:48:00,21.4,8.2,30.27,NNE,27,2.0,6.0,56,0.00,,,0.00,7,HR-IXPWINDi_r2_v1.2.,2013-01-18 12:48:00,
2013-01-18 07:53:00,21.4,7.8,30.28,East,85,1.0,6.0,55,0.00,,,0.00,14,HR-IXPWINDi_r2_v1.2.,2013-01-18 12:53:00,
2013-01-18 07:59:00,21.4,8.2,30.28,NNE,31,0.0,6.0,56,0.00,,,0.00,12,HR-IXPWINDi_r2_v1.2.,2013-01-18 12:59:00,
2013-01-18 08:04:00,21.3,7.7,30.28,NNE,20,2.0,7.0,55,0.00,,,0.00,9,HR-IXPWINDi_r2_v1.2.,2013-01-18 13:04:00,
2013-01-18 08:09:00,21.1,7.5,30.29,NNW,337,0.0,7.0,55,0.00,,,0.00,14,HR-IXPWINDi_r2_v1.2.,2013-01-18 13:09:00,
2013-01-18 08:14:00,21.3,8.1,30.29,North,0,2.0,5.0,56,0.00,,,0.00,62,HR-IXPWINDi_r2_v1.2.,2013-01-18 13:14:00,
2013-01-18 08:19:00,21.4,7.8,30.29,NE,42,2.0,7.0,55,0.00,,,0.00,51,HR-IXPWINDi_r2_v1.2.,2013-01-18 13:19:00,
2013-01-18 08:25:00,21.6,8.4,30.30,North,7,1.0,8.0,56,0.00,,,0.00,48,HR-IXPWINDi_r2_v1.2.,2013-01-18 13:25:00,
2013-01-18 08:32:00,21.8,7.8,30.30,NNE,16,1.0,5.0,54,0.00,,,0.00,42,HR-IXPWINDi_r2_v1.2.,2013-01-18 13:32:00,
2013-01-18 08:37:00,21.8,7.8,30.31,East,85,2.0,5.0,54,0.00,,,0.00,33,HR-IXPWINDi_r2_v1.2.,2013-01-18 13:37:00,
2013-01-18 08:42:00,21.8,7.4,30.31,North,3,1.0,7.0,53,0.00,,,0.00,32,HR-IXPWINDi_r2_v1.2.,2013-01-18 13:42:00,
2013-01-18 08:48:00,21.9,7.9,30.31,ENE,75,1.0,7.0,54,0.00,,,0.00,44,HR-IXPWINDi_r2_v1.2.,2013-01-18 13:48:00,
2013-01-18 08:53:00,21.9,7.4,30.32,NNW,344,2.0,6.0,53,0.00,,,0.00,60,HR-IXPWINDi_r2_v1.2.,2013-01-18 13:53:00,
2013-01-18 08:59:00,21.9,6.6,30.32,NE,54,2.0,6.0,51,0.00,,,0.00,116,HR-IXPWINDi_r2_v1.2.,2013-01-18 13:59:00,
2013-01-18 09:04:00,22.1,6.4,30.32,NE,41,2.0,8.0,50,0.00,,,0.00,58,HR-IXPWINDi_r2_v1.2.,2013-01-18 14:04:00,
2013-01-18 09:09:00,22.1,5.9,30.33,NNE,32,2.0,8.0,49,0.00,,,0.00,35,HR-IXPWINDi_r2_v1.2.,2013-01-18 14:09:00,
2013-01-18 09:14:00,21.9,5.3,30.33,ENE,66,4.0,8.0,48,0.00,,,0.00,77,HR-IXPWINDi_r2_v1.2.,2013-01-18 14:14:00,
2013-01-18 09:19:00,22.1,5.9,30.33,ENE,73,5.0,8.0,49,0.00,,,0.00,100,HR-IXPWINDi_r2_v1.2.,2013-01-18 14:19:00,
2013-01-18 09:24:00,22.2,5.6,30.34,NE,37,4.0,8.0,48,0.00,,,0.00,106,HR-IXPWINDi_r2_v1.2.,2013-01-18 14:24:00,
2013-01-18 09:30:00,22.4,5.7,30.34,NE,41,0.0,6.0,48,0.00,,,0.00,95,HR-IXPWINDi_r2_v1.2.,2013-01-18 14:30:00,
2013-01-18 09:35:00,22.9,5.7,30.34,ENE,66,0.0,6.0,47,0.00,,,0.00,160,HR-IXPWINDi_r2_v1.2.,2013-01-18 14:35:00,
2013-01-18 09:42:00,23.3,6.1,30.36,North,11,1.0,5.0,47,0.00,,,0.00,42,HR-IXPWINDi_r2_v1.2.,2013-01-18 14:42:00,
2013-01-18 09:48:00,23.3,5.6,30.36,ENE,58,3.0,5.0,46,0.00,,,0.00,65,HR-IXPWINDi_r2_v1.2.,2013-01-18 14:48:00,
2013-01-18 09:53:00,22.9,5.7,30.36,NE,48,1.0,8.0,47,0.00,,,0.00,35,HR-IXPWINDi_r2_v1.2.,2013-01-18 14:53:00,
2013-01-18 09:58:00,23.0,5.8,30.36,NE,52,1.0,8.0,47,0.00,,,0.00,35,HR-IXPWINDi_r2_v1.2.,2013-01-18 14:58:00,
2013-01-18 10:04:00,23.3,6.1,30.36,ENE,71,2.0,6.0,47,0.00,,,0.00,40,HR-IXPWINDi_r2_v1.2.,2013-01-18 15:04:00,
2013-01-18 10:09:00,23.6,6.8,30.38,North,356,0.0,6.0,48,0.00,,,0.00,35,HR-IXPWINDi_r2_v1.2.,2013-01-18 15:09:00,
2013-01-18 10:14:00,23.6,5.9,30.38,NNE,30,2.0,6.0,46,0.00,,,0.00,28,HR-IXPWINDi_r2_v1.2.,2013-01-18 15:14:00,
2013-01-18 10:19:00,23.6,5.9,30.38,ENE,61,3.0,6.0,46,0.00,,,0.00,30,HR-IXPWINDi_r2_v1.2.,2013-01-18 15:19:00,
2013-01-18 10:25:00,23.6,5.4,30.38,NW,316,2.0,7.0,45,0.00,,,0.00,32,HR-IXPWINDi_r2_v1.2.,2013-01-18 15:25:00,
2013-01-18 10:30:00,23.6,5.4,30.38,NNE,27,0.0,7.0,45,0.00,,,0.00,32,HR-IXPWINDi_r2_v1.2.,2013-01-18 15:30:00,
2013-01-18 10:35:00,23.9,5.7,30.38,North,11,2.0,7.0,45,0.00,,,0.00,35,HR-IXPWINDi_r2_v1.2.,2013-01-18 15:35:00,
2013-01-18 10:40:00,23.9,5.2,30.38,ENE,69,1.0,6.0,44,0.00,,,0.00,40,HR-IXPWINDi_r2_v1.2.,2013-01-18 15:40:00,
2013-01-18 10:45:00,23.8,5.6,30.38,North,10,4.0,7.0,45,0.00,,,0.00,317,HR-IXPWINDi_r2_v1.2.,2013-01-18 15:45:00,
2013-01-18 10:50:00,23.9,5.2,30.38,NW,325,2.0,9.0,44,0.00,,,0.00,77,HR-IXPWINDi_r2_v1.2.,2013-01-18 15:50:00,
2013-01-18 10:55:00,24.2,6.0,30.38,North,4,0.0,9.0,45,0.00,,,0.00,202,HR-IXPWINDi_r2_v1.2.,2013-01-18 15:55:00,
2013-01-18 11:01:00,24.4,5.7,30.38,NE,54,0.0,6.0,44,0.00,,,0.00,155,HR-IXPWINDi_r2_v1.2.,2013-01-18 16:01:00,
2013-01-18 11:06:00,24.4,5.2,30.38,NNE,16,2.0,6.0,43,0.00,,,0.00,93,HR-IXPWINDi_r2_v1.2.,2013-01-18 16:06:00,
2013-01-18 11:11:00,24.5,5.8,30.38,NE,51,6.0,7.0,44,0.00,,,0.00,229,HR-IXPWINDi_r2_v1.2.,2013-01-18 16:11:00,
2013-01-18 11:17:00,24.5,5.8,30.38,North,0,2.0,10.0,44,0.00,,,0.00,410,HR-IXPWINDi_r2_v1.2.,2013-01-18 16:17:00,
2013-01-18 11:22:00,25.0,6.7,30.37,NE,34,2.0,10.0,45,0.00,,,0.00,413,HR-IXPWINDi_r2_v1.2.,2013-01-18 16:22:00,
2013-01-18 11:27:00,25.3,6.5,30.37,East,88,1.0,7.0,44,0.00,,,0.00,413,HR-IXPWINDi_r2_v1.2.,2013-01-18 16:27:00,
2013-01-18 11:32:00,25.1,5.3,30.37,NNW,340,5.0,8.0,42,0.00,,,0.00,415,HR-IXPWINDi_r2_v1.2.,2013-01-18 16:32:00,
2013-01-18 11:38:00,25.6,4.7,30.36,NE,34,6.0,8.0,40,0.00,,,0.00,419,HR-IXPWINDi_r2_v1.2.,2013-01-18 16:38:00,
2013-01-18 11:43:00,25.7,6.9,30.36,North,0,3.0,6.0,44,0.00,,,0.00,378,HR-IXPWINDi_r2_v1.2.,2013-01-18 16:43:00,
2013-01-18 11:48:00,26.1,5.1,30.36,ENE,65,2.0,7.0,40,0.00,,,0.00,412,HR-IXPWINDi_r2_v1.2.,2013-01-18 16:48:00,
2013-01-18 11:53:00,26.0,4.5,30.37,East,82,7.0,8.0,39,0.00,,,0.00,334,HR-IXPWINDi_r2_v1.2.,2013-01-18 16:53:00,
2013-01-18 11:58:00,26.0,5.0,30.37,NE,52,1.0,8.0,40,0.00,,,0.00,310,HR-IXPWINDi_r2_v1.2.,2013-01-18 16:58:00,
2013-01-18 12:04:00,26.0,3.4,30.37,WNW,299,0.0,7.0,37,0.00,,,0.00,213,HR-IXPWINDi_r2_v1.2.,2013-01-18 17:04:00,
2013-01-18 12:08:00,26.3,3.6,30.37,NNW,330,2.0,9.0,37,0.00,,,0.00,392,HR-IXPWINDi_r2_v1.2.,2013-01-18 17:08:00,
2013-01-18 12:14:00,26.0,4.5,30.37,South,184,1.0,9.0,39,0.00,,,0.00,364,HR-IXPWINDi_r2_v1.2.,2013-01-18 17:14:00,
2013-01-18 12:19:00,26.3,3.6,30.37,East,95,3.0,7.0,37,0.00,,,0.00,336,HR-IXPWINDi_r2_v1.2.,2013-01-18 17:19:00,
2013-01-18 12:24:00,26.3,4.2,30.38,NE,49,2.0,7.0,38,0.00,,,0.00,317,HR-IXPWINDi_r2_v1.2.,2013-01-18 17:24:00,
2013-01-18 12:29:00,26.0,2.8,30.38,ENE,71,2.0,7.0,36,0.00,,,0.00,289,HR-IXPWINDi_r2_v1.2.,2013-01-18 17:29:00,
2013-01-18 12:35:00,25.7,3.1,30.38,NE,44,2.0,7.0,37,0.00,,,0.00,296,HR-IXPWINDi_r2_v1.2.,2013-01-18 17:35:00,
2013-01-18 12:41:00,25.7,2.5,30.38,North,359,5.0,8.0,36,0.00,,,0.00,143,HR-IXPWINDi_r2_v1.2.,2013-01-18 17:41:00,
2013-01-18 12:46:00,25.7,2.5,30.38,NE,40,2.0,8.0,36,0.00,,,0.00,106,HR-IXPWINDi_r2_v1.2.,2013-01-18 17:46:00,
2013-01-18 12:51:00,26.1,4.6,30.38,ESE,104,0.0,8.0,39,0.00,,,0.00,236,HR-IXPWINDi_r2_v1.2.,2013-01-18 17:51:00,
2013-01-18 12:56:00,26.3,4.2,30.38,NNE,17,1.0,6.0,38,0.00,,,0.00,151,HR-IXPWINDi_r2_v1.2.,2013-01-18 17:56:00,
2013-01-18 13:01:00,26.1,4.0,30.38,North,356,4.0,6.0,38,0.00,,,0.00,201,HR-IXPWINDi_r2_v1.2.,2013-01-18 18:01:00,
2013-01-18 13:07:00,26.3,3.0,30.37,North,356,1.0,6.0,36,0.00,,,0.00,176,HR-IXPWINDi_r2_v1.2.,2013-01-18 18:07:00,
2013-01-18 13:12:00,26.1,3.5,30.37,NNW,346,2.0,7.0,37,0.00,,,0.00,282,HR-IXPWINDi_r2_v1.2.,2013-01-18 18:12:00,
2013-01-18 13:17:00,26.1,4.0,30.37,NNE,23,2.0,7.0,38,0.00,,,0.00,104,HR-IXPWINDi_r2_v1.2.,2013-01-18 18:17:00,
2013-01-18 13:23:00,26.1,4.0,30.37,NNW,344,2.0,6.0,38,0.00,,,0.00,151,HR-IXPWINDi_r2_v1.2.,2013-01-18 18:23:00,
2013-01-18 13:28:00,26.4,4.3,30.37,North,0,3.0,8.0,38,0.00,,,0.00,341,HR-IXPWINDi_r2_v1.2.,2013-01-18 18:28:00,
2013-01-18 13:33:00,26.4,4.3,30.37,North,1,5.0,11.0,38,0.00,,,0.00,318,HR-IXPWINDi_r2_v1.2.,2013-01-18 18:33:00,
2013-01-18 13:38:00,26.7,4.0,30.38,ESE,102,1.0,11.0,37,0.00,,,0.00,336,HR-IXPWINDi_r2_v1.2.,2013-01-18 18:38:00,
2013-01-18 13:44:00,26.4,2.5,30.38,NW,311,1.0,12.0,35,0.00,,,0.00,222,HR-IXPWINDi_r2_v1.2.,2013-01-18 18:44:00,
2013-01-18 13:49:00,26.6,3.9,30.38,NNE,32,1.0,12.0,37,0.00,,,0.00,345,HR-IXPWINDi_r2_v1.2.,2013-01-18 18:49:00,
2013-01-18 13:55:00,26.7,3.4,30.39,ESE,119,1.0,6.0,36,0.00,,,0.00,294,HR-IXPWINDi_r2_v1.2.,2013-01-18 18:55:00,
2013-01-18 14:00:00,27.6,5.4,30.39,SSE,155,1.0,6.0,38,0.00,,,0.00,282,HR-IXPWINDi_r2_v1.2.,2013-01-18 19:00:00,
2013-01-18 14:05:00,27.9,3.9,30.39,NE,35,2.0,8.0,35,0.00,,,0.00,185,HR-IXPWINDi_r2_v1.2.,2013-01-18 19:05:00,
2013-01-18 14:11:00,27.2,2.6,30.39,East,93,4.0,8.0,34,0.00,,,0.00,209,HR-IXPWINDi_r2_v1.2.,2013-01-18 19:11:00,
2013-01-18 14:16:00,26.9,2.3,30.39,East,96,0.0,5.0,34,0.00,,,0.00,143,HR-IXPWINDi_r2_v1.2.,2013-01-18 19:16:00,
2013-01-18 14:21:00,26.9,2.3,30.38,ESE,120,2.0,7.0,34,0.00,,,0.00,135,HR-IXPWINDi_r2_v1.2.,2013-01-18 19:21:00,
2013-01-18 14:26:00,26.4,1.9,30.38,East,96,0.0,7.0,34,0.00,,,0.00,220,HR-IXPWINDi_r2_v1.2.,2013-01-18 19:26:00,
2013-01-18 14:31:00,26.4,3.1,30.38,ENE,75,1.0,7.0,36,0.00,,,0.00,190,HR-IXPWINDi_r2_v1.2.,2013-01-18 19:31:00,
2013-01-18 14:36:00,26.4,3.7,30.38,NE,42,2.0,10.0,37,0.00,,,0.00,39,HR-IXPWINDi_r2_v1.2.,2013-01-18 19:36:00,
2013-01-18 14:42:00,26.4,2.5,30.38,NE,37,1.0,10.0,35,0.00,,,0.00,40,HR-IXPWINDi_r2_v1.2.,2013-01-18 19:42:00,
2013-01-18 14:47:00,26.3,2.4,30.38,NE,54,2.0,8.0,35,0.00,,,0.00,30,HR-IXPWINDi_r2_v1.2.,2013-01-18 19:47:00,
2013-01-18 14:52:00,26.3,3.0,30.39,NE,34,2.0,8.0,36,0.00,,,0.00,42,HR-IXPWINDi_r2_v1.2.,2013-01-18 19:52:00,
2013-01-18 14:57:00,26.3,3.0,30.39,ENE,58,0.0,6.0,36,0.00,,,0.00,25,HR-IXPWINDi_r2_v1.2.,2013-01-18 19:57:00,
2013-01-18 15:03:00,26.1,4.0,30.39,SE,143,2.0,4.0,38,0.00,,,0.00,18,HR-IXPWINDi_r2_v1.2.,2013-01-18 20:03:00,
2013-01-18 15:08:00,26.1,3.5,30.39,NNE,25,1.0,6.0,37,0.00,,,0.00,18,HR-IXPWINDi_r2_v1.2.,2013-01-18 20:08:00,
2013-01-18 15:13:00,25.8,2.0,30.39,North,0,1.0,6.0,35,0.00,,,0.00,16,HR-IXPWINDi_r2_v1.2.,2013-01-18 20:13:00,
2013-01-18 15:19:00,25.7,2.5,30.39,NE,42,0.0,5.0,36,0.00,,,0.00,18,HR-IXPWINDi_r2_v1.2.,2013-01-18 20:19:00,
2013-01-18 15:24:00,26.0,3.4,30.40,ESE,106,2.0,3.0,37,0.00,,,0.00,12,HR-IXPWINDi_r2_v1.2.,2013-01-18 20:24:00,
2013-01-18 15:29:00,25.8,2.0,30.40,East,80,0.0,5.0,35,0.00,,,0.00,12,HR-IXPWINDi_r2_v1.2.,2013-01-18 20:29:00,
2013-01-18 15:34:00,25.6,3.6,30.40,NNE,21,1.0,5.0,38,0.00,,,0.00,11,HR-IXPWINDi_r2_v1.2.,2013-01-18 20:34:00,
2013-01-18 15:39:00,25.6,2.4,30.40,SSE,162,1.0,11.0,36,0.00,,,0.00,9,HR-IXPWINDi_r2_v1.2.,2013-01-18 20:39:00,
2013-01-18 15:45:00,25.4,2.2,30.40,ESE,106,0.0,11.0,36,0.00,,,0.00,9,HR-IXPWINDi_r2_v1.2.,2013-01-18 20:45:00,
2013-01-18 15:51:00,25.3,3.9,30.39,East,90,2.0,4.0,39,0.00,,,0.00,7,HR-IXPWINDi_r2_v1.2.,2013-01-18 20:51:00,
2013-01-18 15:57:00,25.1,3.1,30.39,NW,308,1.0,4.0,38,0.00,,,0.00,7,HR-IXPWINDi_r2_v1.2.,2013-01-18 20:57:00,
2013-01-18 16:02:00,25.1,3.7,30.39,NNE,23,3.0,4.0,39,0.00,,,0.00,7,HR-IXPWINDi_r2_v1.2.,2013-01-18 21:02:00,
2013-01-18 16:08:00,25.1,3.7,30.40,ENE,65,0.0,3.0,39,0.00,,,0.00,5,HR-IXPWINDi_r2_v1.2.,2013-01-18 21:08:00,
2013-01-18 16:13:00,25.1,3.1,30.40,ENE,65,0.0,3.0,38,0.00,,,0.00,5,HR-IXPWINDi_r2_v1.2.,2013-01-18 21:13:00,
2013-01-18 16:19:00,25.1,6.3,30.40,ENE,65,0.0,1.0,44,0.00,,,0.00,5,HR-IXPWINDi_r2_v1.2.,2013-01-18 21:19:00,
2013-01-18 16:24:00,25.0,4.7,30.40,NNE,24,0.0,2.0,41,0.00,,,0.00,5,HR-IXPWINDi_r2_v1.2.,2013-01-18 21:24:00,
2013-01-18 16:31:00,25.0,4.7,30.40,NNE,24,0.0,2.0,41,0.00,,,0.00,5,HR-IXPWINDi_r2_v1.2.,2013-01-18 21:31:00,
2013-01-18 16:37:00,25.0,4.1,30.40,NNE,24,1.0,2.0,40,0.00,,,0.00,0,HR-IXPWINDi_r2_v1.2.,2013-01-18 21:37:00,
2013-01-18 16:42:00,25.0,4.1,30.40,NNE,24,0.0,2.0,40,0.00,,,0.00,0,HR-IXPWINDi_r2_v1.2.,2013-01-18 21:42:00,
2013-01-18 16:47:00,25.0,5.7,30.40,NNE,24,0.0,2.0,43,0.00,,,0.00,0,HR-IXPWINDi_r2_v1.2.,2013-01-18 21:47:00,
2013-01-18 16:52:00,24.8,6.0,30.40,NNE,24,0.0,0.0,44,0.00,,,0.00,0,HR-IXPWINDi_r2_v1.2.,2013-01-18 21:52:00,
2013-01-18 16:57:00,24.8,6.0,30.40,NNE,24,0.0,0.0,44,0.00,,,0.00,0,HR-IXPWINDi_r2_v1.2.,2013-01-18 21:57:00,
2013-01-18 17:02:00,24.7,6.9,30.40,NNE,24,0.0,0.0,46,0.00,,,0.00,0,HR-IXPWINDi_r2_v1.2.,2013-01-18 22:02:00,
2013-01-18 17:08:00,24.8,6.5,30.42,NNE,25,1.0,1.0,45,0.00,,,0.00,0,HR-IXPWINDi_r2_v1.2.,2013-01-18 22:08:00,
2013-01-18 17:14:00,25.0,6.2,30.42,NNE,25,0.0,1.0,44,0.00,,,0.00,0,HR-IXPWINDi_r2_v1.2.,2013-01-18 22:14:00,
2013-01-18 17:19:00,25.0,6.2,30.42,NNE,25,0.0,0.0,44,0.00,,,0.00,0,HR-IXPWINDi_r2_v1.2.,2013-01-18 22:19:00,
2013-01-18 17:24:00,24.7,6.4,30.43,NNE,25,0.0,0.0,45,0.00,,,0.00,0,HR-IXPWINDi_r2_v1.2.,2013-01-18 22:24:00,
2013-01-18 17:29:00,24.4,5.7,30.43,NNE,25,0.0,0.0,44,0.00,,,0.00,0,HR-IXPWINDi_r2_v1.2.,2013-01-18 22:29:00,
2013-01-18 17:34:00,24.1,6.8,30.43,NNE,23,0.0,0.0,47,0.00,,,0.00,0,HR-IXPWINDi_r2_v1.2.,2013-01-18 22:34:00,
2013-01-18 17:40:00,23.9,6.2,30.43,NNE,25,0.0,0.0,46,0.00,,,0.00,0,HR-IXPWINDi_r2_v1.2.,2013-01-18 22:40:00,
2013-01-18 17:46:00,23.8,6.6,30.43,NNE,25,0.0,0.0,47,0.00,,,0.00,0,HR-IXPWINDi_r2_v1.2.,2013-01-18 22:46:00,
2013-01-18 17:51:00,23.6,5.9,30.44,NNE,25,0.0,0.0,46,0.00,,,0.00,0,HR-IXPWINDi_r2_v1.2.,2013-01-18 22:51:00,
2013-01-18 17:56:00,23.6,5.4,30.44,NNE,25,0.0,0.0,45,0.00,,,0.00,0,HR-IXPWINDi_r2_v1.2.,2013-01-18 22:56:00,
2013-01-18 18:01:00,23.5,5.3,30.44,NNE,25,0.0,0.0,45,0.00,,,0.00,0,HR-IXPWINDi_r2_v1.2.,2013-01-18 23:01:00,
2013-01-18 18:06:00,23.5,5.8,30.44,NNE,25,0.0,0.0,46,0.00,,,0.00,0,HR-IXPWINDi_r2_v1.2.,2013-01-18 23:06:00,
2013-01-18 18:12:00,23.3,5.6,30.44,NNE,25,0.0,0.0,46,0.00,,,0.00,0,HR-IXPWINDi_r2_v1.2.,2013-01-18 23:12:00,
2013-01-18 18:17:00,23.3,6.6,30.44,NNE,25,0.0,0.0,48,0.00,,,0.00,0,HR-IXPWINDi_r2_v1.2.,2013-01-18 23:17:00,
2013-01-18 18:22:00,23.3,7.0,30.45,NNE,25,0.0,0.0,49,0.00,,,0.00,0,HR-IXPWINDi_r2_v1.2.,2013-01-18 23:22:00,
2013-01-18 18:27:00,23.3,7.5,30.45,NNE,25,0.0,0.0,50,0.00,,,0.00,0,HR-IXPWINDi_r2_v1.2.,2013-01-18 23:27:00,
2013-01-18 18:33:00,23.3,7.9,30.45,NNE,25,0.0,0.0,51,0.00,,,0.00,0,HR-IXPWINDi_r2_v1.2.,2013-01-18 23:33:00,
2013-01-18 18:38:00,23.2,7.8,30.44,NNE,25,0.0,0.0,51,0.00,,,0.00,0,HR-IXPWINDi_r2_v1.2.,2013-01-18 23:38:00,
2013-01-18 18:43:00,23.2,8.2,30.44,NNE,25,0.0,0.0,52,0.00,,,0.00,0,HR-IXPWINDi_r2_v1.2.,2013-01-18 23:43:00,
2013-01-18 18:49:00,23.0,8.5,30.44,NNE,25,0.0,0.0,53,0.00,,,0.00,0,HR-IXPWINDi_r2_v1.2.,2013-01-18 23:49:00,
2013-01-18 18:54:00,23.0,8.5,30.45,NNE,25,0.0,0.0,53,0.00,,,0.00,0,HR-IXPWINDi_r2_v1.2.,2013-01-18 23:54:00,
2013-01-18 18:59:00,22.7,9.0,30.45,NNE,25,0.0,0.0,55,0.00,,,0.00,0,HR-IXPWINDi_r2_v1.2.,2013-01-18 23:59:00,
2013-01-18 19:04:00,22.5,9.6,30.45,NNE,25,0.0,0.0,57,0.00,,,0.00,0,HR-IXPWINDi_r2_v1.2.,2013-01-19 00:04:00,
2013-01-18 19:10:00,22.5,9.6,30.45,NNE,25,0.0,0.0,57,0.00,,,0.00,0,HR-IXPWINDi_r2_v1.2.,2013-01-19 00:10:00,
2013-01-18 19:15:00,22.5,10.0,30.45,NNE,25,0.0,0.0,58,0.00,,,0.00,0,HR-IXPWINDi_r2_v1.2.,2013-01-19 00:15:00,
2013-01-18 19:20:00,22.4,10.3,30.45,NNE,25,0.0,0.0,59,0.00,,,0.00,0,HR-IXPWINDi_r2_v1.2.,2013-01-19 00:20:00,
2013-01-18 19:26:00,22.2,10.1,30.45,NNE,25,0.0,0.0,59,0.00,,,0.00,0,HR-IXPWINDi_r2_v1.2.,2013-01-19 00:26:00,
2013-01-18 19:32:00,22.1,10.4,30.45,NNE,25,0.0,0.0,60,0.00,,,0.00,0,HR-IXPWINDi_r2_v1.2.,2013-01-19 00:32:00,
2013-01-18 19:37:00,21.8,10.1,30.44,NNE,25,0.0,0.0,60,0.00,,,0.00,0,HR-IXPWINDi_r2_v1.2.,2013-01-19 00:37:00,
2013-01-18 19:42:00,21.6,10.3,30.44,NNE,25,0.0,0.0,61,0.00,,,0.00,0,HR-IXPWINDi_r2_v1.2.,2013-01-19 00:42:00,
2013-01-18 19:48:00,21.4,10.5,30.44,NNE,25,0.0,0.0,62,0.00,,,0.00,0,HR-IXPWINDi_r2_v1.2.,2013-01-19 00:48:00,
2013-01-18 19:53:00,21.3,11.1,30.43,NNE,25,0.0,0.0,64,0.00,,,0.00,0,HR-IXPWINDi_r2_v1.2.,2013-01-19 00:53:00,
2013-01-18 19:59:00,21.3,11.1,30.43,NNE,25,0.0,0.0,64,0.00,,,0.00,0,HR-IXPWINDi_r2_v1.2.,2013-01-19 00:59:00,
2013-01-18 20:04:00,21.1,10.9,30.43,NNE,25,0.0,0.0,64,0.00,,,0.00,0,HR-IXPWINDi_r2_v1.2.,2013-01-19 01:04:00,
2013-01-18 20:10:00,21.1,10.9,30.44,NNE,25,0.0,0.0,64,0.00,,,0.00,0,HR-IXPWINDi_r2_v1.2.,2013-01-19 01:10:00,
2013-01-18 20:15:00,21.1,11.2,30.44,NNE,25,0.0,0.0,65,0.00,,,0.00,0,HR-IXPWINDi_r2_v1.2.,2013-01-19 01:15:00,
2013-01-18 20:20:00,21.1,11.2,30.44,NNE,25,0.0,0.0,65,0.00,,,0.00,0,HR-IXPWINDi_r2_v1.2.,2013-01-19 01:20:00,
2013-01-18 20:26:00,21.1,11.2,30.43,NNE,25,0.0,0.0,65,0.00,,,0.00,0,HR-IXPWINDi_r2_v1.2.,2013-01-19 01:26:00,
2013-01-18 20:31:00,21.1,11.6,30.43,NNE,25,0.0,0.0,66,0.00,,,0.00,0,HR-IXPWINDi_r2_v1.2.,2013-01-19 01:31:00,
2013-01-18 20:37:00,21.0,12.1,30.43,NNE,25,0.0,0.0,68,0.00,,,0.00,0,HR-IXPWINDi_r2_v1.2.,2013-01-19 01:37:00,
2013-01-18 20:42:00,21.0,11.8,30.43,NNE,21,0.0,0.0,67,0.00,,,0.00,0,HR-IXPWINDi_r2_v1.2.,2013-01-19 01:42:00,
2013-01-18 20:47:00,20.8,10.9,30.43,NNE,25,0.0,0.0,65,0.00,,,0.00,0,HR-IXPWINDi_r2_v1.2.,2013-01-19 01:47:00,
2013-01-18 20:53:00,20.8,9.9,30.43,NNE,25,0.0,0.0,62,0.00,,,0.00,0,HR-IXPWINDi_r2_v1.2.,2013-01-19 01:53:00,
2013-01-18 20:59:00,21.0,10.4,30.43,NNE,25,0.0,0.0,63,0.00,,,0.00,0,HR-IXPWINDi_r2_v1.2.,2013-01-19 01:59:00,
2013-01-18 21:04:00,21.0,10.8,30.43,NNE,25,0.0,0.0,64,0.00,,,0.00,0,HR-IXPWINDi_r2_v1.2.,2013-01-19 02:04:00,
2013-01-18 21:10:00,20.8,10.2,30.43,NNE,25,0.0,0.0,63,0.00,,,0.00,0,HR-IXPWINDi_r2_v1.2.,2013-01-19 02:10:00,
2013-01-18 21:15:00,20.8,9.9,30.43,NNE,23,0.0,0.0,62,0.00,,,0.00,0,HR-IXPWINDi_r2_v1.2.,2013-01-19 02:15:00,
2013-01-18 21:20:00,21.0,10.4,30.43,NNE,25,0.0,0.0,63,0.00,,,0.00,0,HR-IXPWINDi_r2_v1.2.,2013-01-19 02:20:00,
2013-01-18 21:26:00,21.1,10.9,30.43,NNE,25,0.0,0.0,64,0.00,,,0.00,0,HR-IXPWINDi_r2_v1.2.,2013-01-19 02:26:00,
2013-01-18 21:31:00,21.1,10.9,30.43,NNE,25,0.0,0.0,64,0.00,,,0.00,0,HR-IXPWINDi_r2_v1.2.,2013-01-19 02:31:00,
2013-01-18 21:36:00,21.1,10.9,30.43,NNE,25,0.0,0.0,64,0.00,,,0.00,0,HR-IXPWINDi_r2_v1.2.,2013-01-19 02:36:00,
2013-01-18 21:41:00,21.1,10.9,30.43,NNE,25,0.0,0.0,64,0.00,,,0.00,0,HR-IXPWINDi_r2_v1.2.,2013-01-19 02:41:00,
2013-01-18 21:46:00,21.1,11.2,30.43,NNE,25,0.0,0.0,65,0.00,,,0.00,0,HR-IXPWINDi_r2_v1.2.,2013-01-19 02:46:00,
2013-01-18 21:52:00,21.0,10.4,30.42,NNE,25,0.0,0.0,63,0.00,,,0.00,0,HR-IXPWINDi_r2_v1.2.,2013-01-19 02:52:00,
2013-01-18 21:59:00,21.1,9.8,30.42,NNE,23,0.0,1.0,61,0.00,,,0.00,0,HR-IXPWINDi_r2_v1.2.,2013-01-19 02:59:00,
2013-01-18 22:05:00,21.4,9.0,30.42,NNE,23,0.0,1.0,58,0.00,,,0.00,0,HR-IXPWINDi_r2_v1.2.,2013-01-19 03:05:00,
2013-01-18 22:10:00,21.8,9.3,30.42,NNE,23,0.0,0.0,58,0.00,,,0.00,0,HR-IXPWINDi_r2_v1.2.,2013-01-19 03:10:00,
2013-01-18 22:15:00,21.9,10.9,30.42,NNE,23,0.0,0.0,62,0.00,,,0.00,0,HR-IXPWINDi_r2_v1.2.,2013-01-19 03:15:00,
2013-01-18 22:20:00,21.9,11.6,30.42,NNE,23,0.0,0.0,64,0.00,,,0.00,0,HR-IXPWINDi_r2_v1.2.,2013-01-19 03:20:00,
2013-01-18 22:26:00,21.8,11.5,30.41,NNE,23,0.0,0.0,64,0.00,,,0.00,0,HR-IXPWINDi_r2_v1.2.,2013-01-19 03:26:00,
2013-01-18 22:32:00,21.6,11.4,30.41,NNE,23,0.0,0.0,64,0.00,,,0.00,0,HR-IXPWINDi_r2_v1.2.,2013-01-19 03:32:00,
2013-01-18 22:38:00,21.6,10.6,30.40,NNE,23,0.0,0.0,62,0.00,,,0.00,0,HR-IXPWINDi_r2_v1.2.,2013-01-19 03:38:00,
2013-01-18 22:44:00,21.6,9.9,30.40,NNE,23,0.0,0.0,60,0.00,,,0.00,0,HR-IXPWINDi_r2_v1.2.,2013-01-19 03:44:00,
2013-01-18 22:49:00,22.2,10.1,30.40,NNE,23,0.0,1.0,59,0.00,,,0.00,0,HR-IXPWINDi_r2_v1.2.,2013-01-19 03:49:00,
2013-01-18 22:55:00,22.4,10.3,30.40,NNE,23,0.0,1.0,59,0.00,,,0.00,0,HR-IXPWINDi_r2_v1.2.,2013-01-19 03:55:00,
2013-01-18 23:00:00,22.5,10.0,30.40,NNE,23,0.0,0.0,58,0.00,,,0.00,0,HR-IXPWINDi_r2_v1.2.,2013-01-19 04:00:00,
2013-01-18 23:05:00,22.5,10.0,30.40,NNE,23,0.0,0.0,58,0.00,,,0.00,0,HR-IXPWINDi_r2_v1.2.,2013-01-19 04:05:00,
2013-01-18 23:10:00,22.5,10.0,30.39,NNE,23,0.0,0.0,58,0.00,,,0.00,0,HR-IXPWINDi_r2_v1.2.,2013-01-19 04:10:00,
2013-01-18 23:16:00,22.7,10.2,30.39,NNE,23,0.0,0.0,58,0.00,,,0.00,0,HR-IXPWINDi_r2_v1.2.,2013-01-19 04:16:00,
2013-01-18 23:22:00,22.9,10.0,30.39,NNE,23,0.0,0.0,57,0.00,,,0.00,0,HR-IXPWINDi_r2_v1.2.,2013-01-19 04:22:00,
2013-01-18 23:27:00,23.0,10.1,30.39,NNE,23,0.0,0.0,57,0.00,,,0.00,0,HR-IXPWINDi_r2_v1.2.,2013-01-19 04:27:00,
2013-01-18 23:32:00,23.2,10.3,30.39,NNE,23,0.0,0.0,57,0.00,,,0.00,0,HR-IXPWINDi_r2_v1.2.,2013-01-19 04:32:00,
2013-01-18 23:37:00,23.5,10.5,30.39,NNE,23,0.0,0.0,57,0.00,,,0.00,0,HR-IXPWINDi_r2_v1.2.,2013-01-19 04:37:00,
2013-01-18 23:42:00,23.5,10.5,30.39,NNE,23,0.0,0.0,57,0.00,,,0.00,0,HR-IXPWINDi_r2_v1.2.,2013-01-19 04:42:00,
2013-01-18 23:48:00,23.6,11.0,30.39,NNE,23,0.0,0.0,58,0.00,,,0.00,0,HR-IXPWINDi_r2_v1.2.,2013-01-19 04:48:00,
2013-01-18 23:53:00,23.6,10.6,30.37,NNE,23,0.0,0.0,57,0.00,,,0.00,0,HR-IXPWINDi_r2_v1.2.,2013-01-19 04:53:00,
2013-01-18 23:59:00,23.6,10.6,30.37,NNE,23,0.0,0.0,57,0.00,,,0.00,0,HR-IXPWINDi_r2_v1.2.,2013-01-19 04:59:00,